Find Starlink 35918

NORAD ID: 66643 Int'l Des: 2025-271 Owner: SPXS Country: US Constellation: starlink operational
LEOCIRCULAR

Current View

Loading 3D Globe...

About Starlink 35918

Description loading...

Upcoming Passes

Passes for default location (London). Set your location on the main map for personalized predictions.

Altitude History

Loading altitude history...

Two-Line Element Set

1 66643U 25271AC 26149.36701082 .00020964 00000-0 62962-3 0 9990
2 66643 53.1588 123.4291 0001342 94.1051 266.0105 15.34410972 29949
Epoch: May 29, 2026 • Age: 21 hours

Current Status

Altitude 478.9 km
Velocity 7.63 km/s
Sub-Earth Point -45.95°S, 9.06°E
Launch Date Nov 23, 2025
Age 0.5 years
Type internet

Technical Details

Classification Payload
Mass 575.00 kg
Dry Mass 530.00 kg
Total Mass 575.00 kg
Length 0.30 m
Diameter 4.10 m
Span 29.00 m
Shape Box + pan
Manufacturer SPXS
Bus Type Starlink V2MO
Phase Status In Orbit
Owner/State SPXS/US

Most Searched